Temp
-11 -11 -11 -11 -11 -11 -11 -11 -11 -11 -11 -11 -11 -11 -11 -11 -11 -12 -12 -12 -12 -12 -12 -12 -12 -12 -11 -12 -13 -14 -14 -16 -15 -16 -15 -14 -15 -15 -15 -14 -14 -14 -14 -14 -13
-10 -10 -11 -11 -11 -11 -11 -11 -11 -12 -11 -11 -11 -11 -11 -12 -12 -12 -12 -12 -12 -12 -12 -12 -12 -12 -12 -12 -14 -14 -15 -16 -16 -16 -15 -14 -15 -15 -15 -14 -14 -13 -14 -13 -13
-11 -10 -11 -11 -11 -11 -11 -11 -11 -11 -11 -11 -12 -11 -11 -11 -12 -12 -13 -13 -12 -12 -12 -12 -12 -12 -12 -13 -14 -14 -15 -16 -16 -16 -15 -15 -15 -15 -15 -14 -15 -14 -15 -13 -12
-11 -11 -11 -11 -11 -11 -11 -11 -11 -11 -11 -11 -11 -12 -12 -12 -12 -12 -13 -13 -13 -12 -12 -13 -12 -12 -13 -13 -16 -16 -15 -15 -16 -16 -15 -15 -14 -15 -16 -15 -15 -14 -13 -13 -12
-11 -11 -11 -11 -11 -11 -12 -12 -12 -12 -12 -12 -12 -11 -12 -12 -13 -12 -13 -13 -13 -13 -13 -13 -12 -12 -13 -14 -16 -16 -14 -15 -16 -15 -16 -15 -15 -16 -16 -15 -15 -14 -12 -12 -12
-12 -12 -11 -11 -11 -11 -11 -12 -12 -12 -12 -12 -12 -12 -11 -12 -12 -12 -13 -13 -13 -13 -13 -13 -12 -13 -13 -14 -14 -15 -14 -15 -16 -16 -15 -15 -15 -14 -14 -14 -15 -14 -12 -12 -11
-12 -12 -12 -12 -12 -12 -11 -12 -12 -12 -12 -12 -12 -12 -11 -12 -12 -12 -13 -13 -13 -13 -13 -13 -12 -13 -13 -13 -14 -14 -15 -16 -15 -15 -15 -14 -14 -15 -14 -14 -14 -14 -13 -12 -12
-13 -12 -12 -12 -12 -12 -12 -12 -12 -12 -12 -12 -12 -11 -11 -12 -12 -12 -13 -13 -13 -13 -13 -13 -13 -13 -13 -14 -14 -15 -15 -15 -15 -15 -15 -15 -14 -14 -14 -14 -13 -14 -13 -12 -12
-14 -13 -13 -13 -13 -12 -12 -12 -12 -12 -12 -12 -11 -11 -11 -12 -12 -12 -13 -13 -13 -13 -13 -13 -13 -13 -13 -14 -14 -15 -15 -15 -15 -15 -15 -15 -15 -13 -14 -13 -14 -15 -13 -12 -11
-15 -14 -14 -14 -14 -13 -13 -13 -13 -12 -11 -12 -12 -11 -11 -11 -12 -12 -13 -12 -13 -13 -13 -13 -13 -13 -13 -14 -14 -15 -15 -14 -15 -15 -15 -16 -16 -14 -14 -15 -14 -15 -15 -14 -13
-15 -15 -14 -14 -14 -14 -14 -14 -13 -13 -12 -12 -11 -11 -11 -11 -12 -12 -12 -13 -12 -13 -13 -14 -13 -13 -13 -14 -15 -15 -15 -15 -15 -15 -15 -15 -15 -15 -14 -15 -14 -14 -15 -15 -15
-15 -15 -15 -15 -15 -15 -15 -14 -14 -13 -12 -12 -12 -11 -12 -12 -11 -12 -12 -12 -13 -13 -13 -14 -13 -13 -13 -16 -15 -14 -14 -15 -15 -15 -15 -15 -15 -15 -15 -14 -14 -14 -15 -15 -14
-16 -15 -15 -15 -16 -16 -15 -16 -15 -14 -13 -12 -12 -12 -12 -12 -11 -12 -12 -13 -13 -13 -13 -13 -13 -13 -13 -14 -14 -14 -14 -15 -15 -15 -15 -15 -15 -15 -14 -14 -14 -14 -15 -15 -15
-17 -16 -16 -16 -16 -16 -17 -16 -15 -15 -14 -13 -13 -13 -12 -12 -11 -13 -12 -13 -12 -12 -14 -14 -14 -13 -13 -14 -14 -13 -15 -16 -15 -15 -15 -15 -14 -14 -15 -14 -14 -15 -15 -15 -15
-17 -17 -16 -16 -16 -17 -17 -16 -16 -17 -16 -14 -13 -12 -13 -12 -13 -13 -13 -13 -12 -13 -14 -13 -14 -14 -13 -14 -14 -14 -14 -14 -14 -14 -15 -14 -14 -15 -15 -14 -15 -15 -15 -14 -15
-17 -17 -16 -16 -16 -17 -17 -16 -17 -17 -16 -15 -14 -13 -13 -13 -13 -13 -13 -13 -13 -13 -13 -14 -14 -14 -13 -14 -14 -14 -14 -14 -14 -14 -14 -15 -15 -14 -14 -15 -15 -15 -14 -14 -14
-18 -18 -17 -17 -18 -18 -18 -18 -17 -18 -15 -15 -14 -13 -13 -13 -13 -13 -13 -13 -13 -12 -12 -14 -14 -14 -14 -13 -14 -14 -14 -14 -14 -14 -14 -14 -14 -14 -15 -15 -15 -14 -15 -14 -14
-20 -19 -19 -19 -20 -20 -19 -19 -19 -16 -15 -15 -15 -14 -14 -14 -14 -14 -14 -13 -13 -13 -15 -15 -14 -14 -13 -13 -14 -14 -15 -14 -14 -14 -14 -14 -15 -15 -14 -14 -14 -14 -15 -15 -15
-23 -22 -21 -22 -23 -22 -21 -21 -19 -16 -16 -17 -16 -16 -14 -15 -15 -15 -14 -13 -13 -13 -14 -16 -14 -15 -15 -14 -14 -15 -15 -14 -15 -15 -14 -15 -15 -15 -15 -15 -15 -15 -14 -15 -15
-22 -22 -22 -22 -23 -23 -23 -21 -19 -17 -17 -19 -19 -17 -17 -16 -16 -15 -15 -14 -13 -14 -14 -16 -16 -16 -15 -15 -15 -15 -15 -15 -16 -15 -15 -14 -15 -15 -14 -15 -15 -15 -14 -14 -14
-22 -22 -21 -22 -23 -22 -21 -20 -20 -18 -18 -20 -20 -20 -19 -18 -17 -16 -16 -15 -14 -14 -15 -17 -16 -16 -16 -15 -14 -15 -15 -15 -16 -16 -16 -15 -15 -15 -14 -15 -15 -16 -15 -15 -15
-23 -21 -21 -22 -22 -21 -20 -20 -21 -20 -20 -21 -20 -19 -20 -19 -19 -16 -16 -16 -15 -15 -16 -17 -16 -16 -16 -16 -15 -15 -15 -16 -16 -16 -14 -15 -15 -15 -15 -15 -15 -16 -16 -15 -15
-22 -22 -22 -22 -21 -20 -20 -20 -22 -22 -22 -23 -21 -21 -20 -20 -19 -18 -18 -17 -15 -15 -16 -17 -17 -16 -16 -16 -16 -15 -16 -16 -16 -16 -15 -15 -15 -15 -16 -16 -15 -16 -16 -16 -16
-22 -21 -21 -20 -20 -21 -21 -21 -22 -22 -22 -23 -22 -22 -21 -20 -18 -19 -19 -17 -16 -16 -15 -17 -17 -17 -16 -16 -16 -16 -15 -16 -16 -16 -16 -16 -16 -16 -16 -16 -16 -16 -15 -15 -16
-23 -21 -21 -20 -20 -21 -21 -22 -22 -22 -22 -22 -23 -22 -21 -19 -17 -19 -19 -17 -17 -16 -16 -18 -16 -18 -18 -17 -16 -16 -16 -16 -15 -15 -16 -15 -16 -17 -16 -16 -16 -16 -16 -15 -16
-22 -21 -21 -21 -21 -21 -21 -20 -22 -22 -22 -22 -22 -23 -19 -18 -20 -20 -19 -18 -17 -17 -16 -18 -18 -17 -18 -17 -17 -16 -16 -17 -15 -15 -15 -17 -16 -17 -16 -17 -16 -16 -16 -16 -16
-22 -21 -22 -21 -21 -21 -20 -22 -22 -23 -23 -23 -22 -22 -21 -20 -20 -19 -20 -19 -18 -17 -17 -18 -19 -18 -17 -17 -17 -16 -16 -17 -17 -17 -17 -17 -17 -17 -16 -16 -17 -17 -16 -15 -15
Height
5804 5805 5805 5806 5807 5808 5808 5809 5810 5811 5811 5810 5810 5809 5808 5807 5805 5804 5803 5801 5800 5798 5794 5792 5788 5783 5779 5773 5771 5771 5770 5770 5772 5772 5764 5761 5760 5758 5756 5758 5749 5744 5749 5752 5753
5797 5797 5798 5799 5800 5801 5802 5803 5803 5804 5804 5806 5805 5804 5803 5802 5799 5801 5798 5796 5795 5794 5791 5788 5784 5780 5775 5771 5770 5770 5769 5770 5769 5768 5762 5761 5759 5757 5756 5752 5746 5740 5741 5746 5748
5789 5790 5790 5791 5792 5793 5794 5795 5796 5797 5798 5800 5800 5800 5798 5797 5795 5797 5794 5793 5792 5790 5788 5785 5781 5777 5772 5767 5769 5770 5769 5770 5767 5764 5760 5759 5756 5756 5755 5747 5751 5744 5745 5744 5743
5780 5782 5783 5783 5784 5786 5787 5788 5789 5790 5792 5794 5794 5794 5792 5792 5791 5791 5788 5789 5788 5786 5785 5782 5779 5775 5771 5767 5767 5767 5767 5765 5764 5760 5758 5757 5756 5753 5755 5750 5747 5746 5747 5742 5742
5770 5772 5774 5775 5776 5778 5780 5782 5782 5783 5787 5787 5787 5787 5788 5788 5787 5785 5784 5783 5784 5783 5781 5779 5776 5773 5769 5765 5768 5766 5764 5761 5761 5758 5757 5757 5755 5754 5744 5744 5743 5744 5745 5742 5740
5761 5762 5764 5766 5768 5769 5771 5773 5774 5775 5778 5780 5781 5781 5782 5785 5778 5780 5780 5779 5779 5779 5778 5776 5774 5770 5767 5763 5762 5762 5761 5759 5758 5757 5756 5754 5751 5748 5746 5744 5740 5741 5743 5742 5737
5750 5752 5754 5756 5757 5758 5762 5763 5765 5767 5769 5771 5772 5773 5776 5782 5773 5774 5774 5774 5774 5775 5775 5773 5771 5768 5765 5761 5760 5759 5759 5756 5756 5754 5751 5751 5752 5750 5748 5747 5737 5736 5738 5738 5736
5737 5740 5743 5745 5748 5749 5751 5754 5755 5757 5759 5762 5764 5765 5769 5771 5769 5768 5769 5769 5768 5771 5770 5770 5768 5765 5763 5760 5759 5757 5757 5754 5755 5754 5751 5753 5747 5752 5751 5745 5740 5735 5732 5730 5732
5725 5728 5730 5734 5736 5739 5740 5743 5745 5748 5750 5753 5756 5758 5762 5765 5763 5763 5764 5764 5764 5765 5767 5766 5765 5762 5760 5759 5757 5755 5754 5754 5752 5752 5752 5750 5748 5745 5740 5742 5740 5739 5734 5731 5728
5712 5714 5717 5720 5725 5727 5729 5732 5733 5737 5740 5744 5747 5753 5753 5757 5757 5756 5757 5758 5759 5761 5762 5763 5760 5759 5758 5756 5754 5753 5755 5755 5753 5748 5749 5750 5750 5744 5739 5743 5738 5741 5736 5731 5726
5699 5701 5704 5708 5712 5715 5719 5721 5722 5725 5730 5735 5738 5744 5744 5747 5750 5748 5750 5752 5752 5755 5757 5758 5757 5755 5754 5752 5753 5754 5754 5754 5756 5751 5750 5749 5750 5747 5745 5747 5741 5742 5736 5735 5730
5684 5687 5691 5696 5698 5700 5704 5706 5706 5713 5717 5723 5728 5734 5739 5737 5740 5741 5742 5746 5747 5749 5750 5753 5754 5751 5751 5750 5752 5751 5750 5751 5751 5752 5748 5747 5746 5747 5746 5745 5744 5739 5739 5735 5734
5670 5674 5678 5683 5686 5686 5689 5691 5693 5697 5703 5713 5718 5725 5728 5729 5732 5734 5733 5739 5740 5741 5744 5747 5750 5747 5747 5747 5748 5748 5748 5747 5748 5748 5747 5745 5744 5746 5743 5742 5742 5741 5738 5738 5737
5652 5657 5663 5668 5672 5674 5672 5673 5679 5683 5688 5704 5706 5715 5717 5720 5723 5725 5727 5732 5732 5735 5737 5739 5744 5743 5743 5743 5744 5744 5746 5745 5744 5744 5746 5744 5744 5743 5744 5741 5742 5740 5738 5736 5736
5635 5639 5645 5652 5656 5657 5654 5662 5672 5674 5676 5694 5693 5703 5706 5710 5716 5716 5719 5720 5724 5729 5729 5737 5737 5738 5738 5740 5740 5742 5741 5742 5742 5742 5743 5743 5743 5742 5742 5742 5738 5737 5737 5738 5737
5617 5620 5626 5632 5639 5631 5638 5647 5653 5657 5664 5678 5685 5691 5695 5700 5703 5704 5707 5712 5720 5719 5720 5727 5731 5732 5734 5734 5736 5738 5739 5740 5740 5740 5739 5741 5742 5740 5740 5739 5742 5737 5737 5736 5737
5595 5600 5606 5612 5615 5612 5623 5626 5634 5634 5669 5672 5677 5680 5684 5688 5693 5695 5698 5701 5708 5711 5712 5721 5724 5726 5728 5729 5731 5733 5735 5736 5737 5735 5738 5738 5740 5739 5739 5739 5739 5739 5735 5733 5733
5576 5581 5587 5592 5592 5595 5602 5604 5605 5632 5655 5664 5663 5668 5674 5677 5682 5685 5687 5692 5698 5702 5707 5711 5716 5721 5723 5725 5727 5729 5731 5732 5733 5733 5731 5733 5736 5740 5735 5735 5737 5738 5738 5734 5732
5562 5566 5571 5575 5575 5578 5580 5579 5591 5631 5646 5647 5652 5655 5663 5666 5671 5675 5678 5684 5691 5694 5696 5702 5710 5715 5716 5720 5722 5724 5724 5731 5729 5730 5730 5732 5734 5736 5737 5734 5733 5733 5733 5732 5732
5551 5554 5561 5563 5564 5564 5562 5566 5584 5617 5626 5629 5638 5647 5653 5656 5661 5665 5668 5675 5681 5685 5687 5695 5705 5708 5711 5713 5716 5718 5722 5724 5724 5725 5726 5729 5732 5730 5728 5728 5728 5730 5727 5727 5727
5539 5543 5552 5553 5553 5552 5556 5567 5579 5598 5602 5609 5618 5632 5638 5645 5652 5655 5660 5666 5671 5674 5676 5688 5695 5702 5708 5704 5709 5713 5714 5717 5720 5721 5721 5723 5728 5723 5724 5725 5723 5725 5722 5723 5723
5528 5533 5541 5542 5543 5547 5554 5563 5567 5582 5585 5596 5597 5608 5624 5635 5640 5646 5648 5656 5657 5664 5666 5678 5685 5690 5696 5701 5704 5707 5709 5712 5713 5717 5717 5718 5721 5722 5720 5720 5721 5719 5721 5718 5718
5517 5523 5529 5531 5533 5538 5545 5552 5553 5552 5559 5585 5588 5599 5612 5621 5630 5633 5635 5647 5648 5654 5659 5670 5675 5682 5688 5693 5694 5698 5701 5706 5708 5709 5710 5712 5713 5717 5717 5716 5718 5716 5715 5713 5711
5503 5510 5517 5519 5526 5529 5533 5540 5543 5548 5554 5573 5586 5590 5594 5609 5619 5621 5626 5636 5640 5646 5648 5659 5664 5669 5677 5684 5693 5692 5696 5699 5702 5703 5704 5704 5708 5710 5711 5711 5708 5710 5708 5707 5706
5484 5499 5508 5511 5517 5521 5528 5531 5537 5541 5546 5560 5569 5584 5593 5598 5607 5611 5616 5625 5631 5636 5640 5648 5653 5663 5671 5679 5685 5688 5690 5693 5694 5696 5697 5701 5701 5704 5705 5707 5705 5705 5703 5704 5703
5470 5488 5494 5500 5507 5512 5518 5522 5526 5532 5535 5547 5556 5576 5592 5592 5599 5603 5609 5615 5623 5627 5631 5637 5645 5654 5661 5668 5675 5678 5682 5685 5687 5689 5691 5693 5694 5697 5699 5700 5699 5698 5697 5698 5698
5461 5478 5478 5487 5496 5505 5510 5514 5520 5524 5527 5536 5552 5566 5581 5588 5592 5596 5600 5608 5615 5618 5624 5630 5638 5646 5651 5660 5667 5666 5672 5678 5681 5682 5685 5686 5689 5690 5691 5691 5692 5690 5689 5691 5692
Wind_Speed
36 38 38 37 37 36 36 36 34 34 32 31 32 30 31 32 34 33 32 30 30 32 31 28 28 30 33 24 13 8 4 4 9 8 29 24 25 22 24 17 18 14 14 5 11
40 39 39 38 38 37 36 36 35 32 32 32 33 32 33 32 35 33 33 30 30 29 29 26 25 28 29 21 10 6 2 12 5 15 27 21 22 21 14 18 19 18 5 13 12
42 42 41 40 39 38 37 36 34 33 32 31 30 30 32 31 35 31 30 29 32 26 28 24 24 25 26 17 10 6 6 14 19 21 26 19 19 15 16 27 18 12 14 9 15
44 43 43 43 42 41 39 37 36 34 33 31 31 30 32 32 33 29 32 31 29 26 27 22 21 22 22 13 12 15 11 9 20 21 16 15 15 13 14 20 20 18 18 14 17
48 47 47 46 46 44 42 41 39 38 35 33 32 32 32 34 32 28 29 24 26 26 26 21 20 20 20 10 14 14 13 11 19 14 16 15 12 10 20 10 15 18 16 16 17
49 47 47 47 48 47 46 44 43 42 38 37 37 35 34 30 36 32 29 25 26 25 25 20 18 18 17 14 14 12 13 9 2 18 11 15 21 15 23 17 11 17 12 15 15
50 49 48 50 48 46 47 46 46 45 42 41 39 38 33 28 35 33 27 26 28 25 26 20 18 18 16 14 14 13 13 10 15 7 10 16 20 21 21 19 15 20 18 14 18
56 54 50 49 50 48 46 47 47 47 45 44 43 42 32 33 32 32 27 25 25 24 24 19 17 16 13 10 12 5 5 15 15 15 9 17 18 14 18 20 16 22 24 22 21
56 55 52 51 49 50 48 49 48 47 46 44 45 42 34 35 32 33 30 27 25 23 23 19 17 15 12 9 6 3 7 14 15 15 22 15 17 12 2 18 19 19 22 23 24
59 57 56 52 51 49 49 50 51 50 48 45 44 44 38 36 31 32 34 30 27 26 22 21 16 15 12 7 3 18 7 10 6 23 16 14 7 20 23 22 24 15 14 16 18
59 56 56 58 54 50 50 51 50 51 48 45 44 43 40 38 35 36 32 31 31 29 21 21 16 15 15 4 7 14 12 13 12 19 22 17 4 21 18 14 21 16 13 17 21
60 57 55 55 54 50 50 51 52 51 51 44 42 43 42 41 36 38 32 30 31 25 27 26 14 14 15 6 15 14 15 8 11 14 13 9 3 11 16 12 17 19 8 12 14
61 60 59 57 54 52 53 52 54 51 54 47 43 43 45 41 35 38 36 30 32 29 31 29 18 15 15 11 11 14 12 6 12 16 14 7 6 5 24 12 17 19 11 7 10
64 63 63 62 58 56 56 56 55 53 53 47 44 43 45 45 36 36 36 33 35 37 27 32 21 17 17 13 12 14 7 7 8 10 9 11 4 9 18 14 20 13 14 10 10
70 68 65 63 62 59 62 59 52 50 53 47 50 45 45 47 38 34 35 39 37 34 30 27 24 19 19 15 15 11 15 9 8 6 7 8 3 10 15 13 17 22 15 9 10
70 69 69 66 61 61 61 63 58 55 54 50 49 47 47 46 43 43 42 40 33 37 33 27 26 23 21 18 16 14 14 12 7 10 9 6 9 16 11 6 13 21 17 14 12
65 63 64 64 57 60 59 62 64 66 51 49 49 49 49 47 42 44 41 44 38 39 38 27 30 26 23 22 18 16 16 15 13 13 4 12 13 11 20 11 15 18 24 24 22
54 55 54 53 53 56 61 66 71 62 52 48 52 52 52 48 45 42 42 42 39 41 32 33 34 25 22 20 18 18 17 18 11 6 14 20 10 5 7 14 15 15 17 23 28
39 40 41 42 44 53 63 70 71 52 48 54 53 52 54 48 47 41 42 39 36 44 42 34 30 25 26 22 24 17 23 15 18 20 17 13 6 5 16 23 23 17 17 17 20
38 37 32 35 39 42 56 69 66 48 56 45 43 54 45 50 47 42 47 44 39 45 44 31 24 25 23 25 28 26 16 18 23 25 18 18 6 20 21 10 16 14 22 18 16
44 42 37 41 42 44 38 43 59 55 66 51 42 36 52 46 28 41 43 42 41 45 44 35 27 24 27 33 27 28 29 26 24 17 20 19 13 25 24 17 9 15 24 21 14
45 43 40 43 46 44 33 22 24 60 70 60 56 55 45 35 42 32 48 42 47 43 42 44 33 34 34 33 30 27 24 24 29 24 18 24 19 16 20 20 24 32 30 32 28
48 45 40 43 43 41 34 29 28 50 68 62 64 51 37 46 45 47 47 41 46 48 46 43 47 32 33 28 36 33 26 22 21 19 29 29 28 23 21 24 24 20 22 19 28
53 49 43 42 36 37 39 35 39 35 58 60 59 57 44 46 34 49 46 45 45 50 50 44 47 48 41 36 27 31 26 30 26 26 24 27 24 21 17 22 21 23 21 18 22
58 54 49 44 37 36 32 37 37 30 47 62 66 60 38 43 26 44 48 46 41 50 52 46 46 46 45 42 24 25 24 29 32 31 30 23 22 19 14 20 29 29 19 20 18
61 50 52 51 44 38 34 32 35 36 33 57 72 56 46 33 47 44 40 42 39 50 54 50 52 41 43 40 38 34 26 24 27 30 29 27 24 22 19 20 25 27 28 30 32
60 53 57 53 48 39 36 34 32 32 32 43 65 64 47 36 30 32 39 40 33 41 55 46 45 43 47 39 40 45 33 32 31 29 25 25 23 24 23 23 30 37 37 27 28
Wind_Direction
270 273 272 272 272 272 273 275 274 276 276 280 283 285 286 289 293 298 300 304 312 316 319 326 336 336 341 358 14 2 63 326 306 296 268 289 293 312 308 326 287 308 325 331 243
271 271 271 272 272 270 270 273 274 274 277 280 280 284 287 290 292 299 296 302 311 313 321 328 338 335 339 356 13 350 325 308 297 260 262 288 300 297 301 285 270 293 244 273 273
268 269 271 272 271 271 272 272 274 277 278 279 281 287 290 296 292 303 295 301 307 309 319 327 337 333 336 351 338 324 308 270 269 264 276 266 273 279 310 282 318 345 327 264 262
264 267 269 270 271 270 269 269 271 271 277 279 279 279 289 296 296 306 296 297 302 310 314 325 334 329 332 337 320 315 317 264 292 276 282 275 287 311 290 296 307 312 311 289 266
263 265 266 267 270 269 270 271 269 271 275 274 274 278 284 293 293 302 300 299 300 307 312 321 329 326 329 330 288 280 309 316 294 293 281 276 285 276 272 293 316 316 312 298 282
261 262 264 265 266 269 270 269 270 271 271 274 274 275 284 291 287 292 292 290 299 305 309 316 323 322 327 317 286 288 300 304 288 284 293 304 295 288 293 285 328 318 307 290 276
264 264 263 262 263 264 266 266 267 269 270 271 273 278 281 285 286 290 289 291 286 295 303 311 317 315 324 327 312 303 299 298 294 315 267 308 295 306 304 298 338 326 316 284 273
267 266 265 265 264 263 264 264 265 265 267 271 272 276 279 273 283 284 283 288 280 287 297 304 310 308 317 338 341 334 294 290 310 336 324 306 307 326 329 311 335 324 314 306 273
266 267 266 266 264 264 262 262 263 263 264 265 270 273 275 271 274 278 279 277 275 282 292 297 302 301 304 314 353 0 289 316 336 320 305 294 307 309 236 327 335 323 306 302 279
266 268 269 269 267 263 263 260 260 259 258 262 265 269 266 270 265 271 274 277 274 273 284 287 290 292 296 305 347 281 338 290 262 308 318 308 310 294 318 327 328 0 333 358 314
266 265 266 267 267 265 262 260 259 258 256 259 262 264 264 261 265 264 268 275 271 269 276 275 280 289 282 347 312 270 268 262 303 270 300 309 259 286 286 322 334 344 348 6 16
268 267 266 265 265 262 261 258 256 259 257 252 255 260 260 260 259 262 265 266 267 265 264 270 275 276 273 233 261 261 270 215 214 271 301 291 208 279 290 301 343 327 4 9 17
268 268 267 265 265 264 263 259 256 254 257 253 247 249 257 252 252 257 261 257 258 260 266 265 267 263 260 246 263 269 273 221 255 234 265 265 165 248 271 259 331 327 342 19 25
272 270 269 268 267 267 262 258 257 253 253 253 245 243 247 252 249 252 262 260 260 260 255 257 251 249 256 246 257 256 265 253 237 205 244 279 312 310 319 262 315 358 356 346 10
273 272 269 267 267 263 260 261 259 257 255 251 248 245 241 249 254 249 255 255 254 263 256 250 244 241 251 243 243 257 229 209 220 229 240 299 289 308 277 275 322 329 319 341 345
270 270 270 268 265 255 254 257 250 246 247 248 246 245 241 242 247 247 248 255 254 254 246 227 238 233 244 246 235 247 227 212 240 267 249 191 254 283 278 199 264 299 302 303 323
271 269 268 267 258 251 247 243 242 239 254 249 248 243 244 242 242 246 245 252 252 256 251 231 234 234 236 244 230 230 225 217 241 237 265 237 224 279 295 217 249 298 303 301 312
264 264 262 259 251 244 238 235 234 244 249 252 245 243 239 244 245 244 244 246 246 244 226 232 235 230 227 238 239 227 229 225 250 234 236 250 228 206 284 275 301 302 286 285 294
258 257 255 253 250 243 237 232 232 246 242 233 239 240 241 244 246 244 247 246 244 245 224 227 230 229 233 228 228 227 232 232 220 251 242 278 216 180 266 254 266 281 291 293 280
256 256 252 254 252 252 246 237 232 234 223 221 227 239 246 246 244 244 246 247 244 242 220 210 236 220 237 236 220 216 230 233 227 238 248 244 250 242 242 312 272 282 279 288 300
259 253 249 250 246 252 268 269 240 219 214 208 204 220 232 226 249 235 241 246 245 245 213 196 200 215 212 234 220 221 228 229 238 242 248 252 238 256 262 262 245 274 286 277 278
258 256 251 249 249 258 266 288 247 225 220 209 202 208 223 229 230 248 242 241 245 242 204 198 199 207 210 235 231 231 231 234 243 228 236 251 209 234 268 273 282 284 283 281 281
254 255 253 250 252 258 260 254 259 228 225 223 211 209 203 223 217 230 240 235 243 243 209 203 204 216 216 214 238 222 224 241 254 243 227 239 244 250 259 266 269 285 288 282 285
246 246 246 251 252 249 249 245 246 257 231 210 222 206 195 218 227 231 235 232 239 235 215 207 209 207 215 215 232 233 227 217 236 251 251 243 249 249 242 273 291 277 272 251 285
241 242 244 248 249 253 257 254 253 266 239 220 214 218 212 198 207 232 234 235 240 233 209 197 212 214 219 212 221 246 240 231 234 234 242 253 252 250 240 259 254 269 268 265 252
240 243 242 242 239 244 248 248 245 248 247 221 218 213 205 196 222 228 225 228 235 221 207 198 206 210 217 221 208 219 224 252 238 234 239 249 250 251 252 245 262 266 263 262 260
236 235 236 237 239 237 245 247 249 245 254 220 221 215 210 223 206 223 234 221 219 214 207 198 210 212 220 218 209 216 207 218 236 237 234 238 245 251 236 246 245 256 261 255 257